Погода в Мицпе-Рамоне

Израиль     30°36′50″N   34°48′06″E
темп.,
°C
ветер,
м/с
пор.,
м/с
влажн.,
%
обл.,
%
осадки,
мм/ч
давл.,
гПа
погр.,
м
20 июня, вс
вс2000:00+19сз34670 0.0 1013171
03:00+17ссз11730 0.0 101217
06:00+16сз11710 0.0 101211
09:00+21ююв00380 0.0 1012455
12:00+27с12190 0.0 10111179
15:00+30ссз54130 0.0 10101789
18:00+26ссз97300 0.0 1010896
21:00+22сз610430 0.0 1012276
21 июня, пн
пн2100:00+22сз11370 0.0 101216
03:00+20ссз11380 0.0 101211
06:00+19вюв00410 0.0 101211
09:00+24ю01290 0.0 1013461
12:00+28сз34220 0.0 10121803
15:00+30сз65180 0.0 10112114
18:00+29ссз85250 0.0 10111839
21:00+24ссз78440 0.0 1012298
22 июня, вт
вт2200:00+22ссз22460 0.0 101245
03:00+21зсз11490 0.0 101211
06:00+20з11480 0.0 101311
09:00+24ююз01350 0.0 1013556
12:00+29ссз23240 0.0 10121675
15:00+31ссз65220 0.0 10112234
18:00+28ссз86320 0.0 1011913
21:00+23ссз79470 0.0 1013285
23 июня, ср
ср2300:00+22ссз23510 0.0 101388
03:00+21сз11500 0.0 101311
06:00+20с11530 0.0 101311
09:00+24всв11370 0.0 1013438
12:00+29ссв21250 0.0 10121313
15:00+33с44190 0.0 10101970
18:00+31ссз86270 0.0 1010990
21:00+23ссз79550 0.0 1012279
24 июня, чт
чт2400:00+22ссз33570 0.0 1012118
03:00+21ссз22550 0.0 101215
06:00+20ссз11510 0.0 101211
09:00+25с12300 0.0 1012394
12:00+30ссв43220 0.0 10111031
15:00+33с43210 0.0 10091384
18:00+31ссз76280 0.0 1008950
21:00+24ссз58510 0.0 1011264